[[{"header":{"parameterUnit":"m.s-1","parameterCategory":1,"la1":30.2992,"la2":30.254,"lo1":-89.0895,"lo2":-89.0443,"dy":0.0025,"dx":0.0025,"nx":19,"ny":19,"refTime":"2026-04-21T21:00:00:Z","depth":0,"parameterNumber":2,"parameterNumberName":"U-component_of_WINDS"},"data":[0,0,0,-5.093,-5.0932,-5.098,-5.098,-5.1061,-5.1062,0,0,0,0,0,0,0,0,0,0,0,-5.0926,-5.0927,-5.093,-5.0932,-5.098,-5.098,-5.1061,-5.1062,0,0,0,0,0,0,0,0,0,0,0,-5.0926,-5.0927,-5.0928,-5.0932,-5.098,-5.098,-5.106,-5.1017,0,0,0,0,0,0,0,0,0,0,-5.0967,-5.0973,-5.0927,-5.0928,-5.0932,-5.098,-5.098,-5.1015,-5.102,-5.1046,0,-5.1072,0,-5.1068,-5.1068,-5.1068,0,0,0,-5.0924,-5.0969,-5.0973,-5.0928,-5.0933,-5.098,-5.0956,-5.1018,-5.1023,-5.1053,-5.1073,-5.1076,-5.107,-5.1069,-5.1069,-5.1249,-5.125,0,0,-5.0921,-5.094,-5.0969,-5.0977,-5.097,-5.0955,-5.0958,-5.1021,-5.1044,-5.1073,-5.1077,-5.1071,-5.1069,-5.107,-5.1248,-5.1249,0,0,0,-5.0919,-5.0939,-5.0941,-5.0974,-5.0982,-5.0956,-5.096,-5.1041,-5.104,-5.1078,-5.1072,-5.107,-5.1071,-5.1246,-5.1248,-5.1327,0,0,0,-5.0917,-5.0937,-5.094,-5.0952,-5.0981,-5.1012,-5.0979,-5.1036,-5.1042,-5.1072,-5.107,-5.1072,-5.1245,-5.1247,-5.1322,-5.136,0,0,0,-5.092,-5.0937,-5.0948,-5.0953,-5.0975,-5.101,-5.1013,-5.1036,-5.1039,-5.1069,-5.1072,-5.1244,-5.1247,-5.1317,-5.1353,-5.1414,0,0,0,-5.0928,-5.1016,-5.095,-5.1046,-5.0975,-5.1059,-5.1012,-5.1074,-5.1108,-5.107,-5.1245,-5.1248,-5.1316,-5.1348,-5.1409,-5.1468,-5.1495,0,0,-5.1049,-5.1031,-5.1087,-5.1029,-5.113,-5.105,-5.1163,-5.1176,-5.1161,-5.1221,-5.1225,-5.1323,-5.1352,-5.1413,-5.1638,-5.166,0,0,0,-5.1132,-5.1172,-5.1195,-5.1229,-5.1243,-5.1258,-5.1252,-5.1258,-5.1308,-5.1195,-5.1362,-5.1378,-5.1413,-5.144,-5.1459,-5.1488,-5.1262,-5.1261,-5.1261,-5.1329,-5.1308,-5.1399,-5.1384,-5.1419,-5.1414,-5.1441,-5.1447,-5.1413,-5.1453,-5.147,-5.161,-5.1643,-5.1656,-5.1687,-5.15,-5.1501,-5.1501,-5.1501,-5.1506,-5.1559,-5.1516,-5.1589,-5.1566,-5.1627,-5.1627,-5.1602,-5.1656,-5.1594,-5.1624,-5.1558,-5.168,-5.1706,-5.1507,-5.1506,-5.1505,-5.1505,-5.1504,-5.1632,-5.1654,-5.1661,-5.1712,-5.1754,-5.1736,-5.1791,-5.1768,-5.1747,-5.1776,-5.1793,-5.1791,-5.1787,-5.1786,-5.1787,-5.1787,-5.1787,-5.1788,-5.1788,-5.176,-5.1765,-5.1815,-5.184,-5.1861,-5.1886,-5.1886,-5.1906,-5.1923,-5.1902,-5.1902,-5.1865,-5.1697,-5.1655,-5.1795,-5.1794,-5.1793,-5.1792,-5.1792,-5.1945,-5.1901,-5.1976,-5.1998,-5.2028,-5.2072,-5.2044,-5.2088,-5.2102,-5.2131,-5.2089,-5.1968,-5.1947,-5.1933,-5.1898,-5.2093,-5.2093,-5.2093,-5.2093,-5.2051,-5.204,-5.2114,-5.2151,-5.2184,-5.2168,-5.2256,-5.2259,-5.2253,-5.2261,-5.223,-5.2182,-5.2169,-5.2156,-5.2136,-5.2103,-5.2346,-5.2347,-5.2347,-5.2164,-5.2156,-5.2234,-5.223,-5.2253,-5.2273,-5.2357,-5.2402,-5.2387,-5.2357,-5.2267,-5.2256,-5.2179,-5.2155,-5.212,-5.209,-5.2029,0,0]},{"header":{"parameterUnit":"m.s-1","parameterCategory":1,"la1":30.2992,"la2":30.254,"lo1":-89.0895,"lo2":-89.0443,"dy":0.0025,"dx":0.0025,"nx":19,"ny":19,"refTime":"2026-04-21T21:00:00:Z","depth":0,"parameterNumber":3,"parameterNumberName":"V-component_of_WINDS"},"data":[0,0,0,2.7737,2.7736,2.7656,2.7655,2.7548,2.7547,0,0,0,0,0,0,0,0,0,0,0,2.776,2.7759,2.7737,2.7735,2.7656,2.7655,2.7548,2.7547,0,0,0,0,0,0,0,0,0,0,0,2.776,2.776,2.7759,2.7735,2.7656,2.7655,2.7548,2.761,0,0,0,0,0,0,0,0,0,0,2.7688,2.7709,2.776,2.7759,2.7735,2.7656,2.7655,2.7613,2.7606,2.7583,0,2.7564,0,2.7554,2.754,2.7539,0,0,0,2.7735,2.7715,2.7694,2.7759,2.7734,2.7656,2.7691,2.7609,2.7601,2.7574,2.7563,2.7559,2.7552,2.7539,2.7538,2.7414,2.7413,0,0,2.7739,2.7744,2.77,2.7689,2.7704,2.7694,2.7689,2.7604,2.7591,2.7562,2.7556,2.7551,2.7538,2.7537,2.7414,2.7414,0,0,0,2.7752,2.7747,2.7729,2.7694,2.768,2.7692,2.7686,2.7595,2.7589,2.7555,2.7549,2.7538,2.7536,2.7415,2.7414,2.7393,0,0,0,2.7755,2.7755,2.7731,2.7733,2.7682,2.7637,2.7679,2.7595,2.7585,2.755,2.7538,2.7535,2.7416,2.7414,2.7395,2.7382,0,0,0,2.7765,2.7756,2.7745,2.7734,2.77,2.7638,2.7627,2.7593,2.7582,2.7539,2.7535,2.7416,2.7415,2.7397,2.7385,2.7353,0,0,0,2.7777,2.7724,2.7745,2.7683,2.7701,2.7627,2.7628,2.7571,2.7532,2.7537,2.7415,2.7414,2.7398,2.7387,2.7355,2.7327,2.7316,0,0,2.7713,2.7717,2.7681,2.7696,2.7621,2.7639,2.7559,2.7516,2.7505,2.7444,2.7441,2.7395,2.7385,2.7353,2.7251,2.7243,0,0,0,2.7662,2.7636,2.7615,2.758,2.7549,2.7522,2.7492,2.7476,2.7425,2.7476,2.7374,2.7368,2.7349,2.7335,2.7328,2.7312,2.7408,2.7408,2.7408,2.7578,2.7571,2.7511,2.7495,2.7461,2.7433,2.7404,2.7378,2.7377,2.7354,2.7335,2.7275,2.726,2.7254,2.7238,2.732,2.732,2.732,2.7319,2.7484,2.7447,2.7452,2.7397,2.7389,2.734,2.7311,2.7313,2.7266,2.7287,2.727,2.7295,2.7245,2.723,2.7318,2.7318,2.7318,2.7318,2.7319,2.7429,2.7411,2.7396,2.7347,2.731,2.7294,2.7251,2.7244,2.7236,2.7219,2.7201,2.7201,2.7202,2.7211,2.7211,2.7211,2.7211,2.721,2.721,2.7378,2.7362,2.7328,2.7293,2.7272,2.7242,2.7215,2.7192,2.7165,2.7164,2.7164,2.7167,2.7242,2.7262,2.7207,2.7208,2.7208,2.7208,2.7208,2.7288,2.7308,2.7255,2.7234,2.7194,2.7159,2.7152,2.7107,2.7087,2.7066,2.7073,2.713,2.7132,2.7138,2.7154,2.7075,2.7075,2.7075,2.7075,2.7242,2.7244,2.719,2.7157,2.7123,2.7113,2.7053,2.7031,2.7011,2.6999,2.7009,2.703,2.7036,2.7035,2.7043,2.7058,2.6956,2.6956,2.6955,2.7187,2.7186,2.7137,2.7121,2.709,2.7063,2.7007,2.6967,2.6948,2.6951,2.6989,2.6994,2.7028,2.7039,2.7042,2.7055,2.7082,0,0]}]]